275  
ASUS44 KCRP 221411  
HRRCRP  
 
SOUTH TEXAS REGIONAL WEATHER ROUNDUP  
NATIONAL WEATHER SERVICE CORPUS CHRISTI TX  
900 AM CDT MON OCT 22 2018  
 
TXZ229>244-221500-   
..CORPUS CHRISTI AREA OBSERVATIONS
 
 
 
CITY SKY/WX TMP DP RH WIND PRES REMARKS  
CORPUS CHRISTI CLOUDY 62 52 69 N9 30.14R  
NAS CORPUS CHR CLOUDY 66 57 72 N14 30.12R  
ROCKPORT CLOUDY 62 54 74 N10 30.13R  
KINGSVILLE ARP FAIR 63 58 83 MISG 30.15S  
KINGSVILLE NAS CLOUDY 63 55 75 N9 30.14R  
ALICE NOT AVBL  

 
   
..VICTORIA AREA OBSERVATIONS
 
 
 
CITY SKY/WX TMP DP RH WIND PRES REMARKS  
PORT LAVACA CLOUDY 62 53 73 N8 30.16R  
VICTORIA MOSUNNY 58 51 78 N9 30.17R  
BEEVILLE FAIR 59 52 78 NE6 30.16R  
PLEASANTON CLOUDY 58 50 74 N5 30.19R  
SAN ANTONIO CLOUDY 58 47 66 NE5 30.19R  

 
   
..LAREDO AREA OBSERVATIONS
 
 
 
CITY SKY/WX TMP DP RH WIND PRES REMARKS  
LAREDO PTSUNNY 62 52 69 N6 30.17R  
COTULLA MOSUNNY 58 53 84 NE5 30.19R  
DEL RIO LGT RAIN 59 58 96 E5 30.18R  
MCALLEN LGT RAIN 63 59 87 N6 30.13R FOG  
HEBBRONVILLE CLOUDY 60 52 77 CALM 30.17R HAZE  

 
   
..OTHER TEXAS OBSERVATIONS
 
 
 
CITY SKY/WX TMP DP RH WIND PRES REMARKS  
BROWNSVILLE PTSUNNY 67 62 84 N12G23 30.07R  
HOUSTON CLOUDY 54 46 74 NE7 30.18R  
COL. STATION CLOUDY 55 48 77 NE6 30.21R  
AUSTIN CLOUDY 59 50 72 NE5 30.20R  
WACO PTSUNNY 54 49 83 NE3 30.22R  
FORT WORTH CLOUDY 51 46 83 SE5 30.20R  
WICHITA FALLS CLOUDY 51 45 79 S8 30.17R  
LUBBOCK CLOUDY 47 43 86 SW7 30.16S  
EL PASO MOCLDY 58 50 75 S7 30.15R  

 
   
..MARINE OBSERVATIONS
 
 
 
STATION/POSITION TIME SKY/WX TEMP WIND PRES VSBY WAVE SWELL  
AIR SEA DIR/SP/G HT/PER HT/PER  
(UTC) (F) (DEG/KT/KT) (MB) (MI) (FT/S) (FT/S)  
PORT ARANSAS 1400 64 74 360/ 12/ 14 1020.1R  
BUOY 90 E PORT A 1350 77 82 60/ 19/ 25 1018.3R 7/ 8 3/ 8  
BUOY 45 SE BAFFI 1400 78 81 40/ 17/ 23 1017.8  
BUOY 200 E PT IS 1350 81 84 120/ 12/ 14 1016.6R 6/ 8 5/ 8  
BUOY 15 E GALVES 1350 66 78 50/ 16/ 21 1021.2R 4/ 6 2/ 8  

 
 
 
CLICK HERE TO GO TO PREVIOUS BULLETINS.

The Nexlab TX Page Main Text Page